This is the latest recevied weather packets stored in our database for station/object W1ERB-13. If no packets are shown the sender has not sent any weather packets the latest 10 day(s).
| Time | Temp. | Humidity | Pressure | Rain* | Wind** | Luminosity | Snow |
|---|---|---|---|---|---|---|---|
| 1777545669 | 8.89° C | 99% | 1007.2 hPa | 0 mm | - | 15 W/m² | - |
| 1777545367 | 8.89° C | 99% | 1007.2 hPa | 0 mm | - | 18 W/m² | - |
| 1777545063 | 8.33° C | 99% | 1007.3 hPa | 0 mm | - | 12 W/m² | - |
| 1777544760 | 8.33° C | 99% | 1007.2 hPa | 1.27 mm | - | 5 W/m² | - |
| 1777544456 | 8.33° C | 99% | 1007.3 hPa | 1.27 mm | - | 1 W/m² | - |
| 1777544152 | 8.33° C | 99% | 1007.2 hPa | 0 mm | - | 1 W/m² | - |
| 1777543850 | 8.33° C | 99% | 1007.3 hPa | 0 mm | - | 1 W/m² | - |
| 1777543546 | 8.33° C | 99% | 1007.2 hPa | 0 mm | - | 1 W/m² | - |
| 1777543242 | 8.33° C | 99% | 1007.2 hPa | 1.78 mm | - | 0 W/m² | - |
| 1777542938 | 8.33° C | 99% | 1007.1 hPa | 1.78 mm | - | 0 W/m² | - |
| 1777542635 | 8.89° C | 99% | 1007.4 hPa | 0 mm | - | 0 W/m² | - |
| 1777542331 | 8.33° C | 99% | 1007.3 hPa | 0 mm | - | 0 W/m² | - |
| 1777542028 | 8.33° C | 99% | 1007.4 hPa | 0 mm | - | 0 W/m² | - |
| 1777541726 | 8.33° C | 99% | 1007.4 hPa | 1.78 mm | - | 0 W/m² | - |
| 1777541422 | 8.33° C | 99% | 1007.5 hPa | 1.78 mm | - | 0 W/m² | - |
| 1777541118 | 8.33° C | 99% | 1007.4 hPa | 0 mm | - | 0 W/m² | - |
| 1777540816 | 8.33° C | 99% | 1007.4 hPa | 1.27 mm | - | 0 W/m² | - |
| 1777540513 | 8.33° C | 99% | 1007.5 hPa | 1.27 mm | - | 0 W/m² | - |
| 1777540209 | 8.33° C | 99% | 1007.7 hPa | 1.27 mm | - | 0 W/m² | - |
| 1777539904 | 8.33° C | 99% | 1007.6 hPa | 1.78 mm | - | 0 W/m² | - |
| 1777539601 | 8.33° C | 99% | 1007.6 hPa | 3.05 mm | - | 0 W/m² | - |
| 1777539297 | 8.33° C | 99% | 1007.8 hPa | 1.27 mm | - | 0 W/m² | - |
| 1777538994 | 8.33° C | 99% | 1007.6 hPa | 1.78 mm | - | 0 W/m² | - |
| 1777538690 | 8.33° C | 99% | 1007.7 hPa | 3.05 mm | - | 0 W/m² | - |
| 1777538384 | 8.33° C | 98% | 1007.7 hPa | 3.05 mm | - | 0 W/m² | - |
* Rain latest hour (hover to see other rain measurements)
** Current wind speed in m/s (hover to see current wind gust speed)